SCP
0 0 -0 1 2 2 1 0 1 1 1 1 0 0 1 0 0 0 0 0 0 0 0 0 0 0 0 0 0 0 0 0 0 0 0 0 0 0 0 0 0 0 0
0 0 0 0 1 1 1 0 0 1 1 1 0 1 1 1 1 0 0 0 0 0 0 0 0 0 0 0 0 0 0 0 0 0 0 0 0 0 0 0 0 0 0
1 0 0 0 1 0 0 -0 -0 1 2 1 1 1 2 1 1 1 0 1 0 0 0 0 0 0 0 0 0 0 0 0 0 0 0 0 0 0 0 0 0 0 0
0 0 0 0 0 0 0 0 -0 1 2 2 1 1 1 1 1 0 1 0 0 0 0 0 0 0 0 0 0 0 0 0 0 0 0 0 0 0 0 0 0 0 0
1 0 0 0 0 0 -0 -0 -0 1 3 3 1 1 2 1 0 0 0 0 0 0 0 0 0 0 0 0 0 0 0 0 0 0 0 0 0 0 0 0 0 0 0
0 0 0 0 0 0 0 1 0 1 4 2 1 2 3 1 1 1 0 0 0 0 0 0 0 0 0 0 0 0 0 0 0 0 0 0 0 0 0 0 0 0 0
0 0 0 0 0 -0 0 0 0 1 3 3 2 3 1 0 0 0 0 0 0 0 0 0 0 0 0 0 0 0 0 0 0 0 0 0 0 0 0 0 0 0 -0
-0 -0 -0 -0 -0 -0 -0 -0 1 0 3 1 1 0 0 0 0 0 0 0 0 0 0 0 0 0 0 0 0 0 0 0 0 0 0 0 0 0 0 0 0 0 0
-0 -0 -0 -0 -0 -0 -0 0 0 0 0 0 0 0 0 0 0 0 0 0 0 0 0 0 0 0 0 0 0 0 0 0 0 0 0 0 0 0 0 0 0 0 0
0 0 0 0 0 0 0 0 0 0 0 0 0 0 0 0 0 0 0 0 0 0 0 0 0 0 0 0 0 0 0 0 0 0 0 0 0 0 0 0 0 0 0
0 0 0 0 0 0 0 0 0 0 0 0 0 0 0 0 0 0 0 0 0 0 0 0 0 0 0 0 0 0 0 0 0 0 0 0 0 0 0 0 0 0 0
0 0 0 -0 0 0 0 0 0 0 0 0 0 0 0 0 0 0 0 0 0 0 0 0 0 0 0 0 0 -0 -0 -0 -0 -0 -0 0 0 0 0 0 -0 0 0
0 0 0 0 0 0 0 0 0 0 0 0 0 0 0 0 0 0 0 0 0 0 0 0 0 0 0 0 -0 -0 -0 -0 -0 -0 -0 -0 -0 0 0 -0 0 0 0
0 0 0 0 0 0 0 0 0 0 0 0 0 0 0 0 0 0 0 0 0 0 0 0 0 0 0 0 0 0 0 0 0 0 0 0 0 -0 -0 0 0 0 0
-0 0 0 0 0 0 0 0 0 0 0 0 0 0 0 0 0 0 0 0 0 0 0 0 0 0 0 0 0 0 0 0 0 0 0 0 0 0 0 0 0 0 0
0 0 0 0 0 0 0 0 0 0 0 0 0 0 0 0 0 0 0 0 0 0 0 0 0 0 0 0 0 0 0 0 0 0 0 0 0 0 0 0 0 0 0
0 0 0 0 0 0 0 0 0 0 0 0 0 0 0 0 0 0 0 0 0 0 0 0 0 0 0 -0 0 0 0 0 0 0 0 0 0 0 0 -0 0 0 0
0 0 0 0 0 0 0 0 0 0 0 0 0 0 0 0 0 0 0 0 0 0 0 -0 0 0 0 -0 0 0 0 0 0 0 0 0 0 0 0 0 0 0 0
0 0 0 0 0 0 0 0 0 0 0 0 0 0 0 0 0 0 0 0 0 0 0 0 -0 -0 0 -0 -0 0 0 0 0 0 0 0 0 0 0 0 0 0 0
0 0 0 0 0 0 0 0 0 0 0 0 0 0 0 0 0 0 0 0 0 0 0 -0 -0 -0 -0 -0 0 -0 -0 -0 0 0 0 -0 -0 0 0 0 0 0 0
0 0 0 0 0 0 0 0 0 0 0 0 0 0 0 0 0 0 0 0 0 0 0 0 -0 -0 -0 -0 -0 0 0 -0 0 0 0 0 0 -0 -0 -0 -0 -0 0
0 0 0 0 0 0 0 0 0 0 0 0 0 0 0 0 0 0 0 0 0 0 0 0 -0 -0 0 -0 -0 -0 0 -0 0 0 0 0 -0 -0 -0 -0 -0 0 0
0 0 0 0 0 0 0 0 0 0 0 0 0 0 0 0 0 0 -0 0 0 0 0 0 0 -0 0 0 -0 -0 -0 0 0 0 0 -0 -0 -0 -0 0 0 0 0
0 0 0 0 0 0 0 0 0 0 0 0 0 0 0 0 0 0 -0 0 0 0 0 0 0 0 0 0 0 0 0 0 0 0 0 0 0 0 0 0 0 0 0
0 0 0 0 0 0 0 0 0 0 0 0 0 0 0 0 0 0 0 0 0 0 0 0 0 0 0 0 0 0 0 0 0 0 0 -0 0 0 0 0 0 0 0
0 0 0 0 0 0 0 0 0 0 0 0 0 0 0 0 0 0 0 0 0 0 0 0 0 0 0 0 0 0 0 0 0 0 0 0 0 0 0 0 0 0 0
Wind_Speed_500mb
41 20 15 27 24 22 16 11 8 11 13 11 5 4 16 20 24 18 17 14 17 31 38 38 50 45 55 63 54 53 62 51 53 55 52 52 39 31 16 20 27 28 29
55 32 37 30 9 19 30 19 27 20 12 11 7 14 15 25 20 21 15 18 25 32 36 40 38 44 58 52 50 54 59 48 36 40 43 32 45 18 5 17 21 9 14
49 20 24 19 16 35 58 28 36 32 17 14 14 17 20 22 19 9 13 13 16 26 27 30 35 50 49 45 46 55 42 40 40 36 31 15 10 41 38 30 12 13 5
21 26 16 21 14 17 53 12 20 35 16 15 8 15 17 19 16 11 15 24 34 31 34 35 43 49 47 47 53 55 34 41 43 33 29 29 34 21 43 35 27 23 19
25 25 32 40 26 21 20 21 38 20 18 17 14 17 19 25 26 25 31 28 28 23 37 43 54 49 47 52 58 39 42 43 44 37 35 34 32 34 27 50 30 15 22
39 37 39 43 38 25 7 26 12 20 19 20 21 24 26 37 34 34 28 31 33 43 50 45 45 51 56 54 49 41 44 40 38 32 29 31 34 36 31 26 42 42 36
39 44 32 12 15 17 35 5 4 15 15 18 30 27 28 29 29 23 29 43 48 42 39 50 47 44 54 48 43 41 42 38 33 32 30 29 29 29 27 28 32 35 38
39 34 30 39 33 29 25 14 8 13 10 32 19 20 21 30 25 29 42 46 44 53 50 48 50 61 50 44 44 43 37 30 30 28 27 27 22 22 24 27 25 25 12
43 52 44 39 54 50 30 30 28 28 23 8 16 24 24 25 34 43 40 48 54 54 56 64 60 48 47 45 41 33 32 33 27 24 22 21 20 19 16 17 17 22 9
64 66 66 60 50 48 40 36 36 33 30 31 34 35 37 38 38 45 57 58 55 56 61 57 48 54 48 47 29 32 28 26 20 17 18 15 13 12 15 18 17 16 17
63 60 53 50 42 41 39 42 41 38 38 41 34 38 36 38 45 55 56 52 57 56 50 47 48 41 37 18 23 24 25 21 20 20 21 16 12 13 10 7 14 15 15
54 46 54 49 50 49 43 44 36 35 38 30 29 32 41 51 59 57 60 53 49 41 37 39 38 28 22 23 25 26 27 26 23 23 20 18 17 17 16 10 4 13 18
50 51 47 49 47 50 48 45 42 41 37 32 38 46 53 55 61 56 51 52 45 33 32 34 32 24 26 24 28 27 29 33 27 28 28 24 21 14 12 16 12 7 19
46 50 55 52 47 50 47 46 43 45 44 35 42 45 48 56 52 44 47 42 38 34 31 28 28 25 25 26 27 28 29 25 27 21 20 23 15 14 13 8 16 22 28
47 45 53 47 46 45 44 42 41 45 40 40 43 45 50 48 53 39 45 44 39 34 34 30 27 27 26 28 30 23 27 25 34 25 23 13 15 20 20 19 23 25 37
42 46 52 46 42 44 41 35 34 40 39 42 40 43 45 53 36 43 36 37 37 37 34 35 31 30 31 28 23 28 30 39 26 27 28 27 22 20 21 21 21 23 25
42 45 45 38 38 40 30 30 34 38 39 42 40 37 43 40 35 36 40 38 36 32 33 32 31 33 28 38 41 25 24 32 27 26 30 27 30 36 33 29 22 26 31
34 39 35 33 35 36 28 29 34 40 41 40 37 40 43 35 35 31 35 36 33 32 32 30 28 29 33 39 40 33 33 31 35 30 33 35 33 31 33 37 35 33 40
32 34 29 28 32 36 25 30 35 39 34 36 35 39 26 27 32 34 36 33 33 31 31 34 30 28 31 40 27 28 35 35 36 38 34 35 32 28 26 27 31 34 41
32 31 31 30 31 26 28 33 35 30 34 22 33 38 21 30 35 30 33 30 34 32 32 36 35 26 26 25 31 33 42 50 47 42 42 38 35 32 33 40 45 57 73
29 26 30 26 27 23 30 32 29 31 32 26 31 35 33 25 36 33 31 27 30 33 31 32 31 34 30 25 24 24 32 53 63 55 50 43 40 44 49 46 56 73 69
25 24 24 23 26 27 28 27 24 28 30 27 32 35 32 27 32 31 28 26 26 27 28 26 29 31 30 27 22 21 26 39 49 56 58 57 58 62 63 66 65 56 49
23 21 19 19 23 26 29 23 23 34 21 21 25 35 29 23 28 26 22 22 20 23 26 28 28 27 32 30 28 21 25 30 37 42 47 57 62 58 55 52 46 41 40
19 20 21 18 19 25 29 27 25 19 19 19 30 30 25 21 27 27 21 24 19 17 21 23 24 24 22 28 31 27 26 29 30 34 40 42 39 35 38 39 34 29 28
16 23 18 14 18 24 26 28 29 16 20 30 34 28 21 24 25 19 28 30 29 25 20 22 22 19 20 24 27 24 23 26 26 28 31 31 29 20 23 27 22 22 23
19 20 15 12 15 22 26 29 29 18 19 23 27 30 22 24 23 20 23 24 25 29 25 23 19 17 18 17 21 27 28 25 20 22 22 23 16 15 18 21 20 16 20
Wind_Direction_500mb
140 129 206 138 165 202 227 329 278 280 284 230 149 302 278 305 311 329 297 303 294 299 300 296 314 316 307 313 313 310 324 310 311 312 315 320 332 321 331 0 275 273 265
164 157 168 142 92 21 82 347 290 282 255 198 196 248 278 302 319 325 314 316 282 282 304 314 311 304 306 300 301 314 317 308 319 321 322 330 340 349 260 22 22 276 250
179 195 160 138 196 125 57 269 258 253 256 237 238 253 295 306 309 285 297 262 291 316 304 300 295 303 296 290 305 313 310 310 310 304 302 323 309 322 299 303 299 358 324
204 189 218 169 168 184 313 220 235 252 246 257 277 311 307 311 291 290 292 305 307 297 289 293 304 304 296 304 313 317 304 305 307 303 289 283 288 313 304 297 285 304 315
204 180 174 135 123 107 165 172 268 249 252 288 293 276 286 286 280 293 299 304 307 292 303 303 300 307 304 309 315 305 308 307 299 293 291 286 285 286 265 291 302 290 285
129 158 140 132 109 107 132 299 205 240 292 296 300 315 306 312 301 313 299 306 303 303 311 315 313 309 309 310 311 305 308 306 298 294 288 283 285 284 271 265 284 300 302
104 119 107 80 3 17 358 161 246 287 303 319 300 297 288 273 300 292 308 313 318 321 316 314 313 310 313 312 313 314 310 303 299 294 293 288 281 275 270 268 280 294 306
70 83 81 46 30 39 36 39 38 359 329 345 285 279 291 303 313 320 317 321 325 325 320 314 311 315 311 315 315 313 307 306 304 298 299 294 286 278 276 270 271 285 279
71 62 56 46 38 42 38 41 45 26 8 327 298 313 319 330 322 328 330 333 340 332 326 319 319 319 321 322 318 322 310 307 304 302 303 298 299 278 269 263 261 255 254
68 70 64 60 58 57 52 36 30 30 29 9 359 349 346 344 344 338 338 337 332 325 325 329 330 322 321 315 312 321 319 316 318 311 315 309 315 298 282 259 253 237 216
64 56 54 51 36 29 17 18 13 2 0 13 3 350 352 340 332 336 339 333 330 330 332 334 339 336 340 356 339 333 339 340 330 325 313 293 285 290 295 272 234 214 205
53 50 47 48 39 37 35 33 24 25 12 15 2 357 343 341 342 342 337 344 348 345 344 349 349 4 1 353 348 347 346 341 328 322 308 294 277 276 270 253 195 230 197
50 45 37 33 29 22 19 13 10 9 10 7 349 339 342 343 347 352 356 352 357 3 6 12 10 13 359 7 353 347 341 331 323 311 298 283 261 253 226 209 178 194 168
46 38 28 23 17 13 13 7 9 1 3 354 344 349 349 352 1 3 7 10 15 26 20 19 12 5 4 3 360 353 353 355 349 347 335 323 218 204 191 196 159 161 155
41 34 29 21 15 19 18 9 5 360 6 353 345 352 352 0 355 3 7 23 28 26 18 15 19 17 13 9 12 355 360 20 10 13 3 41 141 152 132 144 160 154 157
38 29 21 13 10 11 12 12 8 357 348 347 351 355 357 352 4 14 17 28 27 26 30 25 21 17 14 25 6 356 355 354 20 36 55 89 103 137 149 138 134 149 151
31 21 16 4 2 10 14 6 355 349 355 354 353 4 351 356 13 14 16 19 22 25 27 24 24 30 37 18 15 33 31 34 48 68 78 84 99 120 117 123 136 139 109
27 19 12 2 4 12 18 359 346 350 355 349 4 2 356 21 12 24 18 29 27 25 27 22 24 31 31 27 17 40 45 58 63 77 80 87 102 105 113 118 133 133 140
27 22 10 5 2 15 14 351 347 352 350 357 10 3 12 16 15 16 19 28 30 31 31 28 30 37 40 43 60 50 45 71 76 76 85 97 100 102 112 110 117 120 124
28 22 10 357 7 22 1 357 358 357 357 12 7 5 8 26 16 23 22 31 36 32 38 42 37 43 52 62 65 59 61 74 83 83 81 85 94 101 111 117 117 119 123
17 18 10 10 27 22 9 9 356 1 5 25 16 5 23 45 24 23 29 30 41 49 39 30 38 45 56 71 66 63 72 75 77 79 83 87 93 100 106 104 116 120 121
14 20 18 13 3 12 8 5 356 354 15 31 24 25 24 35 26 24 32 36 37 42 44 39 41 47 51 64 76 78 89 87 79 81 84 93 106 106 107 110 113 119 124
9 21 23 10 358 2 359 359 350 355 31 21 26 26 13 17 16 15 23 29 51 52 48 47 44 41 39 51 70 99 104 103 87 90 97 106 108 108 111 115 118 121 129
11 21 22 4 4 360 354 353 346 13 24 8 19 17 14 30 28 26 36 44 47 41 40 45 40 31 50 67 70 80 118 120 101 103 112 119 119 109 108 112 113 122 136
23 16 24 18 3 352 355 348 351 33 31 30 20 21 37 25 26 46 46 44 40 36 36 36 41 55 66 77 70 89 109 120 112 108 123 126 127 117 110 118 118 120 127
4 10 18 17 8 356 347 345 353 39 28 30 30 32 39 33 27 46 36 22 27 33 32 31 38 57 71 78 85 90 99 116 117 127 135 141 144 117 123 120 135 124 131
Wind_Speed_850mb
41 20 15 27 24 22 16 11 8 11 13 11 5 4 16 20 24 18 17 14 17 31 38 38 50 45 55 63 54 53 62 51 53 55 52 52 39 31 16 20 27 28 29
55 32 37 30 9 19 30 19 27 20 12 11 7 14 15 25 20 21 15 18 25 32 36 40 38 44 58 52 50 54 59 48 36 40 43 32 45 18 5 17 21 9 14
49 20 24 19 16 35 58 28 36 32 17 14 14 17 20 22 19 9 13 13 16 26 27 30 35 50 49 45 46 55 42 40 40 36 31 15 10 41 38 30 12 13 5
21 26 16 21 14 17 53 12 20 35 16 15 8 15 17 19 16 11 15 24 34 31 34 35 43 49 47 47 53 55 34 41 43 33 29 29 34 21 43 35 27 23 19
25 25 32 40 26 21 20 21 38 20 18 17 14 17 19 25 26 25 31 28 28 23 37 43 54 49 47 52 58 39 42 43 44 37 35 34 32 34 27 50 30 15 22
39 37 39 43 38 25 7 26 12 20 19 20 21 24 26 37 34 34 28 31 33 43 50 45 45 51 56 54 49 41 44 40 38 32 29 31 34 36 31 26 42 42 36
39 44 32 12 15 17 35 5 4 15 15 18 30 27 28 29 29 23 29 43 48 42 39 50 47 44 54 48 43 41 42 38 33 32 30 29 29 29 27 28 32 35 38
39 34 30 39 33 29 25 14 8 13 10 32 19 20 21 30 25 29 42 46 44 53 50 48 50 61 50 44 44 43 37 30 30 28 27 27 22 22 24 27 25 25 12
43 52 44 39 54 50 30 30 28 28 23 8 16 24 24 25 34 43 40 48 54 54 56 64 60 48 47 45 41 33 32 33 27 24 22 21 20 19 16 17 17 22 9
64 66 66 60 50 48 40 36 36 33 30 31 34 35 37 38 38 45 57 58 55 56 61 57 48 54 48 47 29 32 28 26 20 17 18 15 13 12 15 18 17 16 17
63 60 53 50 42 41 39 42 41 38 38 41 34 38 36 38 45 55 56 52 57 56 50 47 48 41 37 18 23 24 25 21 20 20 21 16 12 13 10 7 14 15 15
54 46 54 49 50 49 43 44 36 35 38 30 29 32 41 51 59 57 60 53 49 41 37 39 38 28 22 23 25 26 27 26 23 23 20 18 17 17 16 10 4 13 18
50 51 47 49 47 50 48 45 42 41 37 32 38 46 53 55 61 56 51 52 45 33 32 34 32 24 26 24 28 27 29 33 27 28 28 24 21 14 12 16 12 7 19
46 50 55 52 47 50 47 46 43 45 44 35 42 45 48 56 52 44 47 42 38 34 31 28 28 25 25 26 27 28 29 25 27 21 20 23 15 14 13 8 16 22 28
47 45 53 47 46 45 44 42 41 45 40 40 43 45 50 48 53 39 45 44 39 34 34 30 27 27 26 28 30 23 27 25 34 25 23 13 15 20 20 19 23 25 37
42 46 52 46 42 44 41 35 34 40 39 42 40 43 45 53 36 43 36 37 37 37 34 35 31 30 31 28 23 28 30 39 26 27 28 27 22 20 21 21 21 23 25
42 45 45 38 38 40 30 30 34 38 39 42 40 37 43 40 35 36 40 38 36 32 33 32 31 33 28 38 41 25 24 32 27 26 30 27 30 36 33 29 22 26 31
34 39 35 33 35 36 28 29 34 40 41 40 37 40 43 35 35 31 35 36 33 32 32 30 28 29 33 39 40 33 33 31 35 30 33 35 33 31 33 37 35 33 40
32 34 29 28 32 36 25 30 35 39 34 36 35 39 26 27 32 34 36 33 33 31 31 34 30 28 31 40 27 28 35 35 36 38 34 35 32 28 26 27 31 34 41
32 31 31 30 31 26 28 33 35 30 34 22 33 38 21 30 35 30 33 30 34 32 32 36 35 26 26 25 31 33 42 50 47 42 42 38 35 32 33 40 45 57 73
29 26 30 26 27 23 30 32 29 31 32 26 31 35 33 25 36 33 31 27 30 33 31 32 31 34 30 25 24 24 32 53 63 55 50 43 40 44 49 46 56 73 69
25 24 24 23 26 27 28 27 24 28 30 27 32 35 32 27 32 31 28 26 26 27 28 26 29 31 30 27 22 21 26 39 49 56 58 57 58 62 63 66 65 56 49
23 21 19 19 23 26 29 23 23 34 21 21 25 35 29 23 28 26 22 22 20 23 26 28 28 27 32 30 28 21 25 30 37 42 47 57 62 58 55 52 46 41 40
19 20 21 18 19 25 29 27 25 19 19 19 30 30 25 21 27 27 21 24 19 17 21 23 24 24 22 28 31 27 26 29 30 34 40 42 39 35 38 39 34 29 28
16 23 18 14 18 24 26 28 29 16 20 30 34 28 21 24 25 19 28 30 29 25 20 22 22 19 20 24 27 24 23 26 26 28 31 31 29 20 23 27 22 22 23
19 20 15 12 15 22 26 29 29 18 19 23 27 30 22 24 23 20 23 24 25 29 25 23 19 17 18 17 21 27 28 25 20 22 22 23 16 15 18 21 20 16 20
Wind_Direction_850mb
140 129 206 138 165 202 227 329 278 280 284 230 149 302 278 305 311 329 297 303 294 299 300 296 314 316 307 313 313 310 324 310 311 312 315 320 332 321 331 0 275 273 265
164 157 168 142 92 21 82 347 290 282 255 198 196 248 278 302 319 325 314 316 282 282 304 314 311 304 306 300 301 314 317 308 319 321 322 330 340 349 260 22 22 276 250
179 195 160 138 196 125 57 269 258 253 256 237 238 253 295 306 309 285 297 262 291 316 304 300 295 303 296 290 305 313 310 310 310 304 302 323 309 322 299 303 299 358 324
204 189 218 169 168 184 313 220 235 252 246 257 277 311 307 311 291 290 292 305 307 297 289 293 304 304 296 304 313 317 304 305 307 303 289 283 288 313 304 297 285 304 315
204 180 174 135 123 107 165 172 268 249 252 288 293 276 286 286 280 293 299 304 307 292 303 303 300 307 304 309 315 305 308 307 299 293 291 286 285 286 265 291 302 290 285
129 158 140 132 109 107 132 299 205 240 292 296 300 315 306 312 301 313 299 306 303 303 311 315 313 309 309 310 311 305 308 306 298 294 288 283 285 284 271 265 284 300 302
104 119 107 80 3 17 358 161 246 287 303 319 300 297 288 273 300 292 308 313 318 321 316 314 313 310 313 312 313 314 310 303 299 294 293 288 281 275 270 268 280 294 306
70 83 81 46 30 39 36 39 38 359 329 345 285 279 291 303 313 320 317 321 325 325 320 314 311 315 311 315 315 313 307 306 304 298 299 294 286 278 276 270 271 285 279
71 62 56 46 38 42 38 41 45 26 8 327 298 313 319 330 322 328 330 333 340 332 326 319 319 319 321 322 318 322 310 307 304 302 303 298 299 278 269 263 261 255 254
68 70 64 60 58 57 52 36 30 30 29 9 359 349 346 344 344 338 338 337 332 325 325 329 330 322 321 315 312 321 319 316 318 311 315 309 315 298 282 259 253 237 216
64 56 54 51 36 29 17 18 13 2 0 13 3 350 352 340 332 336 339 333 330 330 332 334 339 336 340 356 339 333 339 340 330 325 313 293 285 290 295 272 234 214 205
53 50 47 48 39 37 35 33 24 25 12 15 2 357 343 341 342 342 337 344 348 345 344 349 349 4 1 353 348 347 346 341 328 322 308 294 277 276 270 253 195 230 197
50 45 37 33 29 22 19 13 10 9 10 7 349 339 342 343 347 352 356 352 357 3 6 12 10 13 359 7 353 347 341 331 323 311 298 283 261 253 226 209 178 194 168
46 38 28 23 17 13 13 7 9 1 3 354 344 349 349 352 1 3 7 10 15 26 20 19 12 5 4 3 360 353 353 355 349 347 335 323 218 204 191 196 159 161 155
41 34 29 21 15 19 18 9 5 360 6 353 345 352 352 0 355 3 7 23 28 26 18 15 19 17 13 9 12 355 360 20 10 13 3 41 141 152 132 144 160 154 157
38 29 21 13 10 11 12 12 8 357 348 347 351 355 357 352 4 14 17 28 27 26 30 25 21 17 14 25 6 356 355 354 20 36 55 89 103 137 149 138 134 149 151
31 21 16 4 2 10 14 6 355 349 355 354 353 4 351 356 13 14 16 19 22 25 27 24 24 30 37 18 15 33 31 34 48 68 78 84 99 120 117 123 136 139 109
27 19 12 2 4 12 18 359 346 350 355 349 4 2 356 21 12 24 18 29 27 25 27 22 24 31 31 27 17 40 45 58 63 77 80 87 102 105 113 118 133 133 140
27 22 10 5 2 15 14 351 347 352 350 357 10 3 12 16 15 16 19 28 30 31 31 28 30 37 40 43 60 50 45 71 76 76 85 97 100 102 112 110 117 120 124
28 22 10 357 7 22 1 357 358 357 357 12 7 5 8 26 16 23 22 31 36 32 38 42 37 43 52 62 65 59 61 74 83 83 81 85 94 101 111 117 117 119 123
17 18 10 10 27 22 9 9 356 1 5 25 16 5 23 45 24 23 29 30 41 49 39 30 38 45 56 71 66 63 72 75 77 79 83 87 93 100 106 104 116 120 121
14 20 18 13 3 12 8 5 356 354 15 31 24 25 24 35 26 24 32 36 37 42 44 39 41 47 51 64 76 78 89 87 79 81 84 93 106 106 107 110 113 119 124
9 21 23 10 358 2 359 359 350 355 31 21 26 26 13 17 16 15 23 29 51 52 48 47 44 41 39 51 70 99 104 103 87 90 97 106 108 108 111 115 118 121 129
11 21 22 4 4 360 354 353 346 13 24 8 19 17 14 30 28 26 36 44 47 41 40 45 40 31 50 67 70 80 118 120 101 103 112 119 119 109 108 112 113 122 136
23 16 24 18 3 352 355 348 351 33 31 30 20 21 37 25 26 46 46 44 40 36 36 36 41 55 66 77 70 89 109 120 112 108 123 126 127 117 110 118 118 120 127
4 10 18 17 8 356 347 345 353 39 28 30 30 32 39 33 27 46 36 22 27 33 32 31 38 57 71 78 85 90 99 116 117 127 135 141 144 117 123 120 135 124 131